Location: Arndorf
(48.3000°N, 15.1333°E)
Time: 12:29:08
(UTC+00:00)

Daily predictions for brighter satellites

Satellite Brightness Start Highest point End
(mag) Time Altitude Azimuth Time Altitude Azimuth Time Altitude Azimuth
Cosmos 2082 Rocket 2.2 19:07:40 10° SSW 19:13:14 67° ESE 19:18:52 10° NNE
Cosmos 1842 Rocket 3.7 19:10:32 10° N 19:15:03 86° WSW 19:19:32 10° S
SPOT 5 4.4 19:12:46 10° ESE 19:15:39 18° ENE 19:18:35 10° NNE
Cosmos 2278 3.8 19:10:19 10° NNW 19:16:01 81° ENE 19:21:41 10° SSE
Resurs 1-3 3.9 19:14:18 10° S 19:18:41 72° WSW 19:23:05 10° NNW
Cosmos 2360 Rocket 3.9 19:18:21 10° N 19:22:41 22° NE 19:26:59 10° E
Cosmos 1633 2.5 19:20:05 10° S 19:23:39 63° E 19:27:14 10° NNE
ERS-1 Rocket 4.3 19:21:12 10° ESE 19:25:15 25° ENE 19:29:19 10° N
Cosmos 332 Rocket 4.2 19:20:36 10° NNW 19:25:22 50° ENE 19:30:07 10° SE
Cosmos 158 Rocket 4.5 19:22:31 10° S 19:27:16 39° ESE 19:32:10 10° NE
Cosmos 1606 2.9 19:26:44 10° NNW 19:30:30 71° W 19:34:16 10° S
Nadezhda 4 Rocket 4.0 19:26:08 10° S 19:32:15 70° E 19:38:29 10° NNE
Cosmos 2333 Rocket 4.3 19:29:07 10° N 19:32:33 16° NE 19:35:58 10° ENE
GP-B 4.1 19:31:08 10° NNE 19:35:03 29° E 19:38:47 11° SE
Landsat 7 3.9 19:33:15 10° SSE 19:38:01 89° WSW 19:42:48 10° NNW
Spot 2 Rocket 4.1 19:34:38 10° SE 19:39:28 44° ENE 19:44:19 10° N
SPOT 3 Rocket 3.6 19:34:28 10° SSE 19:39:42 85° ENE 19:44:58 10° NNW
ISS -3.5 19:36:50 10° WNW 19:40:10 58° SSW 19:42:58 14° SE
IGS 5A 3.7 19:37:07 10° S 19:41:15 71° WSW 19:45:25 10° NNW
BREEZE-M DEB (TANK) 3.3 19:33:28 10° W 19:44:27 81° N 19:47:46 10° E
Cosmos 1980 Rocket 2.9 19:39:06 10° NW 19:44:33 53° WSW 19:50:01 10° S
Cosmos 1812 4.5 19:42:54 10° NNE 19:45:40 18° ENE 19:48:00 12° ESE
USA 234 4.3 19:39:39 10° ENE 19:45:44 43° N 19:51:51 10° WNW
MetOp-B 4.2 19:40:46 10° SSE 19:46:07 83° ENE 19:51:31 10° NNW
CZ-2C R/B 4.0 19:42:21 10° NNE 19:46:45 47° E 19:51:03 10° S
Cosmos 2221 4.1 19:45:23 10° NNW 19:49:19 35° W 19:53:15 10° SSW
RESURS DK-1 3.2 19:47:34 10° SW 19:51:38 55° WNW 19:55:45 10° NNE
USA 245 3.8 19:47:53 10° SSE 19:52:57 69° ENE 19:57:05 10° N
Meteor 2-15 4.5 19:48:08 10° N 19:54:14 90° E 20:00:17 10° S
BREEZE-M DEB (TANK) 3.6 19:51:43 10° SW 19:55:26 60° SE 20:08:35 10° ENE
Cosmos 2322 Rocket 2.7 19:49:57 10° NNW 19:55:27 49° NE 19:59:58 15° SE
Cosmos 304 Rocket 3.8 19:55:03 10° NNW 19:59:52 89° ENE 20:03:55 15° SSE
Cosmos 1933 3.3 19:56:55 10° N 20:00:59 85° E 20:04:32 13° S
BREEZE-M DEB (TANK) 3.9 19:57:52 10° W 20:01:12 57° SSW 20:09:24 14° SE
Cosmos 1538 Rocket 4.1 19:57:04 10° SSW 20:02:17 82° WNW 20:07:30 10° NNE
Resurs 01 Rocket 2.7 19:59:44 10° S 20:03:59 44° W 20:08:15 10° NNW
ERS-2 3.6 20:01:29 10° N 20:04:54 39° WNW 20:08:19 10° SW
Cosmos 2151 3.0 20:02:11 10° S 20:06:26 83° W 20:10:44 10° N
Cosmos 1553 Rocket 4.5 20:00:45 10° N 20:06:32 44° ENE 20:10:57 17° SE
Cosmos 2098 Rocket 3.8 20:04:49 10° SSW 20:07:48 41° WNW 20:11:20 10° N
JB-3 4.3 20:05:31 10° NNE 20:09:41 72° ESE 20:13:44 10° S
Gbstr 26 Del rocket 2.7 20:06:35 10° WNW 20:10:18 72° SSW 20:12:56 20° SE
Meteor 2-3 Rocket 3.7 20:05:59 10° S 20:11:37 80° E 20:17:23 10° NNE
Meteor 2-15 Rocket 4.5 20:06:15 10° N 20:12:22 84° W 20:18:12 11° S
CARTOSAT-1 3.5 20:09:29 16° SSE 20:12:55 82° ENE 20:17:15 10° NNW
Cosmos 2084 4.4 20:12:29 20° SSE 20:13:54 24° ESE 20:17:17 10° ENE
Cosmos 2219 Rocket 3.9 20:12:17 10° N 20:16:42 23° NE 20:21:04 10° E
Cosmos 1624 Rocket 4.5 20:14:13 10° NNW 20:19:17 48° ENE 20:22:39 20° SE
Cosmos 1862 4.3 20:21:25 23° SE 20:22:57 30° E 20:26:27 10° NNE
SL-16 R/B 2.2 20:18:19 10° NNW 20:24:02 85° WSW 20:28:03 20° SSE
COSMOS 2455 4.3 20:26:04 16° ESE 20:26:54 17° ESE 20:30:33 10° ENE
Cosmos 1782 2.8 20:23:24 10° N 20:27:27 83° W 20:30:03 21° S
Cosmos 1515 Rocket 4.5 20:23:25 10° N 20:27:31 35° ENE 20:29:35 23° ESE
Cosmos 2237 4.4 20:22:20 10° NNW 20:28:02 65° ENE 20:31:46 22° SE
ARIANE 5 R/B 2.7 20:26:51 19° S 20:30:01 81° WSW 20:34:30 10° NNW
COSMOS 2428 4.3 20:26:33 10° N 20:31:10 24° NE 20:35:35 11° E
Meteor 2-6 Rocket 4.3 20:28:04 10° N 20:33:27 60° ENE 20:36:40 24° SSE
Cosmos 1271 Rocket 3.5 20:30:08 10° NNW 20:34:00 50° W 20:36:55 16° SSW
Cosmos 1809 Rocket 4.5 20:30:11 15° S 20:35:21 68° E 20:41:28 10° NNE
S3M 4.4 20:30:37 10° N 20:36:51 52° ENE 20:40:44 23° SE
USA 276 2.6 20:34:56 10° W 20:37:56 41° SSW 20:38:32 36° S
BREEZE-M DEB (TANK) 3.5 20:35:46 10° W 20:39:05 41° SSW 20:43:14 22° SE
Cosmos 1766 Rocket 3.5 20:37:42 19° S 20:40:50 82° E 20:45:14 10° N
Cosmos 1151 Rocket 3.1 20:36:40 10° NNW 20:41:03 78° W 20:43:40 24° S
ATLAS 5 CENTAUR R/B 3.7 20:38:47 10° NNW 20:43:17 28° NNE 20:48:27 10° E
Cosmos 1328 Rocket 3.5 20:40:49 10° N 20:45:18 89° E 20:47:39 28° S
Cosmos 1174 4.3 20:42:48 10° NNW 20:45:35 32° NE 20:46:29 26° E
ATLAS 2AS CENTAUR R/B 4.4 20:39:36 10° W 20:46:59 41° NNW 20:54:08 10° NE
Cosmos 923 Rocket 4.2 20:43:22 10° SSW 20:48:41 75° WNW 20:54:04 10° NNE
Terra 1.8 20:47:56 27° SSE 20:50:35 89° WSW 20:55:23 10° NNW
ATLAS 3B R/B 4.1 20:45:03 10° NW 20:51:07 31° WSW 20:56:42 12° SSW
USA 267 3.7 20:47:09 10° ENE 20:53:09 37° SE 20:59:01 10° SSW
SPOT 5 3.0 20:50:48 23° S 20:53:18 58° WSW 20:57:40 10° NNW
Cosmos 2082 Rocket 4.5 20:53:08 10° WSW 20:57:49 26° NW 21:02:35 10° NNE
Meteor 1-27 Rocket 4.2 20:53:40 10° N 20:59:07 48° ENE 21:01:49 28° SE
Cosmos 2056 Rocket 3.5 20:54:05 10° NNW 20:59:29 84° WSW 21:02:09 31° SSE
Meteor 2-21 Rocket 4.5 20:56:51 24° S 21:00:44 69° E 21:06:52 10° NNE
NOSS 2-1 (C) 2.7 21:00:51 54° SSE 21:01:14 59° SE 21:04:33 10° NE
BREEZE-M DEB (TANK) 2.5 21:01:42 10° W 21:03:13 44° WNW 21:03:13 44° WNW
ERS-1 Rocket 3.6 21:00:35 21° SSW 21:03:46 51° W 21:08:40 10° NNW
SL-27 R/B 2.4 21:06:23 51° SSE 21:07:06 67° ESE 21:10:41 10° NNE
Meteor 2-21 4.5 21:02:38 18° S 21:07:24 85° W 21:13:36 10° N
Cosmos 2360 Rocket 2.1 21:01:45 10° NNW 21:07:25 85° WSW 21:10:08 32° SSE
NOSS 2-1 (D) 2.6 21:08:18 53° SSW 21:08:55 73° SE 21:12:17 10° NE
ISS -1.1 21:15:12 10° WSW 21:15:56 11° SW 21:15:56 11° SW
Cosmos 1833 4.2 21:14:09 26° S 21:17:25 65° ESE 21:23:10 10° NNE
Cosmos 2333 Rocket 2.4 21:12:24 10° NNW 21:18:02 62° ENE 21:20:38 32° SE
Meteor 1-10 Rocket 4.2 21:14:39 10° NNW 21:20:13 77° W 21:22:51 32° S
Cosmos 1812 3.8 21:18:00 10° NNW 21:21:37 39° W 21:23:04 27° SW
Cosmos 1500 Rocket 3.6 21:22:34 46° SSE 21:23:41 65° E 21:28:06 10° NNE
Cosmos 1680 Rocket 4.3 21:18:47 10° SW 21:23:55 51° WNW 21:29:03 10° NNE
Cosmos 972 Rocket 4.4 21:23:45 37° SE 21:25:06 45° ESE 21:29:53 10° NNE
USA 234 3.5 21:22:43 15° ESE 21:28:13 67° NNE 21:34:44 10° NW
IRIDIUM 103 4.4 21:23:07 10° N 21:28:20 63° E 21:30:05 40° SSE
Cosmos 2322 3.8 21:22:38 10° NNW 21:28:22 70° ENE 21:30:49 35° SE
COBE Rocket 4.0 21:29:38 42° SE 21:30:59 60° ENE 21:35:37 10° N
Cosmos 292 Rocket 3.8 21:27:27 10° NNW 21:32:13 70° WSW 21:33:40 43° S
Cosmos 2297 Rocket 4.3 21:35:24 12° E 21:35:24 12° E 21:37:11 10° ENE
Cosmos 2237 Rocket 3.7 21:33:40 10° NNW 21:38:32 28° NE 21:42:14 15° E
Meteor 2-16 Rocket 4.5 21:35:25 27° SSW 21:38:56 76° W 21:45:04 10° N
Cosmos 2322 Rocket 3.4 21:34:24 10° NW 21:39:16 31° WSW 21:41:46 21° SW
Cosmos 1408 Rocket 4.4 21:40:12 26° SW 21:42:19 46° WNW 21:46:32 10° N
Cosmos 1743 Rocket 3.5 21:42:22 47° SSW 21:43:37 83° WNW 21:48:05 10° N
Cosmos 2285 Rocket 4.0 21:38:46 10° NNW 21:45:06 77° ENE 21:47:42 38° SE
IRIDIUM 106 4.2 21:41:21 10° N 21:46:37 89° E 21:48:18 45° S
Cosmos 2227 Rocket 4.3 21:47:05 10° E 21:47:08 10° E 21:48:11 10° E
Cosmos 2315 Rocket 4.0 21:43:17 10° N 21:49:38 88° W 21:52:17 38° S
Sich 1 3.1 21:51:50 53° ESE 21:52:14 56° E 21:56:30 10° NNE
Cosmos 2084 4.2 21:49:10 10° WSW 21:53:08 49° NW 21:57:13 10° NE
Cosmos 494 Rocket 4.4 21:53:17 41° ESE 21:53:50 43° ESE 21:58:40 10° NE
Okean 1 4.0 21:52:01 10° N 21:55:51 41° ENE 21:56:09 40° E
Cosmos 1633 Rocket 4.1 21:56:02 30° E 21:56:08 30° E 21:59:57 10° NNE
Cosmos 2266 Rocket 4.2 21:53:29 27° SSW 21:56:53 65° WNW 22:03:07 10° N
Cosmos 1666 Rocket 4.2 21:59:59 40° E 22:00:12 40° E 22:04:22 10° NNE
Cosmos 1048 Rocket 4.0 21:59:25 51° SSE 22:00:25 63° ESE 22:05:30 10° NNE
Cosmos 2219 Rocket 2.1 21:55:42 10° NNW 22:01:19 80° WSW 22:02:58 47° SSE
Cosmos 2228 Rocket 3.3 22:00:57 10° NNW 22:05:18 60° W 22:06:05 51° SW
SL-16 R/B 4.4 22:01:21 10° N 22:05:26 20° NE 22:09:30 10° E
Meteor 1-19 Rocket 4.4 21:59:56 10° N 22:05:33 62° ENE 22:07:11 43° SE
BREEZE-M DEB (TANK) 4.4 21:54:03 10° SW 22:06:51 48° SSE 22:11:08 10° E
NOSS 2-1 (E) 4.4 22:05:22 19° W 22:07:13 36° NW 22:10:33 10° NNE
SL-16 R/B 4.4 22:04:19 10° WNW 22:07:15 14° W 22:09:55 11° SW
USA 40 PKM 4.3 22:04:33 10° NW 22:08:09 75° NE 22:08:39 61° E
NOSS 3-1 (C) 4.2 22:03:26 10° NW 22:10:51 63° WSW 22:14:30 36° S
COSMOS 2455 2.7 22:09:10 34° SSW 22:11:58 87° ESE 22:18:03 10° NE
Meteor 2-4 Rocket 4.5 22:08:24 10° N 22:14:06 45° ENE 22:16:13 32° ESE
COSMOS 2428 2.7 22:10:21 10° NNW 22:16:04 76° WSW 22:17:35 50° S
Cosmos 1602 3.6 22:17:48 80° ENE 22:17:48 80° ENE 22:21:34 10° NNE
CZ-4C R/B 4.5 22:13:07 10° NW 22:18:53 30° NNE 22:25:35 10° E
Cosmos 1515 3.7 22:17:10 10° NNW 22:20:48 73° WNW 22:20:48 73° WNW
Cosmos 1862 Rocket 3.8 22:18:14 10° N 22:22:32 54° ENE 22:22:56 52° E
Spot 4 4.1 22:21:45 48° SW 22:22:39 57° W 22:27:24 10° NNW
USA 229 DEB 3.9 22:17:48 10° NW 22:25:06 75° SW 22:28:16 39° SSE
USA 229 3.9 22:17:54 10° NW 22:25:13 76° SW 22:28:23 39° SSE
ATLAS 5 CENTAUR R/B 2.2 22:22:59 10° NW 22:28:30 88° SW 22:30:39 44° SE
Terra 4.3 22:27:18 10° WSW 22:29:02 12° W 22:30:46 10° WNW
COSMOS 2487 3.5 22:31:49 39° WNW 22:31:51 39° WNW 22:35:05 10° N
Cosmos 1452 Rocket 4.2 22:26:57 10° NW 22:31:52 41° WSW 22:32:49 37° SW
Cosmos 1707 Rocket 3.5 22:27:37 10° NNW 22:31:58 70° W 22:32:18 66° SW
Thor Agena Rocket 4.3 22:29:02 10° NNE 22:33:38 34° E 22:34:07 34° ESE
ALOS 2 2.5 22:33:57 67° SW 22:34:18 71° WSW 22:38:42 10° NNW
USA 267 3.3 22:30:00 10° NE 22:36:33 81° NNW 22:43:06 10° WSW
Cosmos 2219 4.1 22:40:38 32° ESE 22:41:12 32° ESE 22:46:14 10° NE
Nadezhda 1 Rocket 4.1 22:35:51 10° N 22:42:16 70° ENE 22:44:26 43° SSE
Cosmos 1666 3.4 22:44:25 44° ENE 22:44:25 44° ENE 22:47:43 10° NNE
NOSS 3-1 (A) 4.2 22:38:08 10° NW 22:45:32 62° WSW 22:48:48 39° S
SL-08 ROCKET BODY 4.4 22:44:13 47° SSW 22:46:07 85° W 22:52:19 10° N
Cosmos 2360 Rocket 4.2 22:47:40 10° WNW 22:50:31 14° W 22:51:53 13° WSW
NOSS 2-2 (D) 4.5 22:51:52 10° NW 22:57:00 73° NE 23:00:43 28° SE
Cosmos 1110 Rocket 4.4 22:52:52 10° NNW 22:57:58 47° WSW 22:58:40 44° SW
Cosmos 1980 3.6 22:54:16 10° NNW 22:59:58 85° WSW 23:01:19 54° SSE
Cosmos 2333 Rocket 3.6 22:57:26 10° NW 23:01:52 24° WSW 23:02:38 23° WSW
Cosmos 1331 Rocket 4.4 22:58:24 10° NNW 23:03:24 46° WSW 23:03:58 44° SW
Meteor 2-17 Rocket 4.4 23:05:18 49° SSE 23:06:57 71° E 23:12:59 10° NNE
CZ-2D R/B 4.4 23:04:39 10° ENE 23:07:03 13° E 23:09:04 11° ESE
USA 234 3.4 23:10:02 44° S 23:11:24 50° SW 23:17:46 10° WNW
SL-16 R/B 4.3 23:07:02 10° ESE 23:11:51 25° NE 23:16:43 10° N
Nimbus 7 Rocket 4.4 23:06:01 10° NNE 23:12:03 77° WNW 23:14:02 45° SSW
Cosmos 1340 Rocket 3.0 23:13:35 61° ENE 23:13:35 61° ENE 23:17:12 10° NNE
NOSS 0 Rocket 4.2 23:08:48 10° NW 23:14:48 50° WSW 23:16:01 44° SW
EO 1 Del DPAF 4.5 23:13:45 10° NNE 23:16:42 30° E 23:16:42 30° E
Cosmos 2297 Rocket 2.1 23:17:11 55° S 23:18:22 72° ESE 23:24:02 10° NNE
Okean 1-7 2.9 23:14:25 10° N 23:18:40 71° ENE 23:18:54 69° ESE
Lacrosse 5 1.9 23:21:59 59° SE 23:22:07 59° SE 23:27:06 10° ENE
Cosmos 2237 Rocket 2.3 23:17:24 10° NNW 23:23:01 62° WSW 23:24:02 53° SSW
Cosmos 1869 Rocket 4.3 23:23:27 40° ESE 23:23:52 41° E 23:28:05 10° NNE
Cosmos 2084 Rocket 3.9 23:20:40 10° NW 23:24:07 49° W 23:24:07 49° W
Cosmos 2242 Rocket 3.4 23:20:22 10° N 23:24:48 83° E 23:25:08 75° SE
NOSS 2-2 (E) 4.4 23:20:45 10° NW 23:26:09 69° SW 23:28:32 42° SSE
Cosmos 2181 Rocket 4.3 23:21:57 10° N 23:28:14 60° ENE 23:30:51 35° SE
Cosmos 1470 Rocket 3.9 23:29:03 50° W 23:29:24 52° WNW 23:33:39 10° N
Cosmos 2227 Rocket 2.2 23:28:53 53° S 23:30:04 68° ESE 23:35:42 10° NNE
Cosmos 909 Rocket 4.3 23:31:45 44° S 23:33:50 64° ESE 23:41:27 10° NE
Cosmos 1633 Rocket 4.4 23:33:06 27° W 23:33:53 29° WNW 23:37:44 10° N
Cosmos 1933 Rocket 3.6 23:35:34 64° WSW 23:35:59 69° WNW 23:40:27 10° N
Timation 1 Rocket 4.4 23:41:04 48° S 23:42:36 67° ESE 23:48:34 10° NE
Meteor 1-11 Rocket 3.6 23:41:19 52° S 23:42:42 77° E 23:48:14 10° NNE
Cosmos 2219 Rocket 4.2 23:41:54 10° WNW 23:44:19 13° W 23:44:40 13° W
Cosmos 2263 Rocket 3.9 23:46:36 17° ESE 23:48:23 20° E 23:52:21 10° NE
SL-16 R/B 2.2 23:44:45 10° NNW 23:50:27 83° ENE 23:52:43 38° SSE
Cosmos 1992 Rocket 3.9 23:45:40 10° NNW 23:50:56 80° WSW 23:52:06 55° S
PSLV R/B 4.1 23:46:33 10° N 23:51:13 56° WNW 23:52:12 46° WSW
Cosmos 1269 Rocket 4.4 23:50:05 40° WSW 23:51:42 55° WNW 23:56:55 10° NNE
ADEOS Rocket 4.3 23:47:08 11° ESE 23:51:42 31° ENE 23:56:30 10° N
Resurs 1-4 Rocket 3.4 23:48:42 10° NNE 23:53:22 30° E 23:55:13 24° SE
